Location: Ward Pound Ridge Reservation
(41.2500°N, 73.6000°W)
Time: 13:56:20
(UTC-05:00)

N. Korean satellite - Pass Details

Date: 11 October 2017
Orbit: 461 x 513 km, 97.2° (Epoch: 16 December)

Event Time Altitude Azimuth Distance (km) Brightness Sun altitude
Rises 19:01:08 0° 170° (S) 2,560 10.2 -8.6°
Reaches altitude 10° 19:03:13 10° 172° (S) 1,674 9.2 -9.0°
Maximum altitude 19:06:49 76° 259° (WSW) 503 6.8 -9.7°
Drops below altitude 10° 19:10:23 10° 345° (NNW) 1,658 9.5 -10.4°
Sets 19:12:26 0° 347° (NNW) 2,533 10.4 -10.8°
